Location: Home
(42.5358°N, 72.7383°W)
Time: 09:22:21
(UTC-05:00)

S-56A Canister/Altair - Pass Details

Date: 30 November 2021
Orbit: 634 x 2499 km, 38.9° (Epoch: 22 January)

Event Time Altitude Azimuth Distance (km) Brightness Sun altitude
Rises 23:35:30 0° 221° (SW) 5,188 - -69.3°
Reaches altitude 10° 23:39:48 10° 212° (SSW) 3,871 - -69.3°
Maximum altitude 23:47:47 31° 156° (SSE) 2,026 - -69.2°
Drops below altitude 10° 23:53:30 10° 96° (E) 2,729 - -69.1°
Sets 23:55:59 0° 85° (E) 3,477 - -69.0°
